STARLINK-35480 (66242 NORAD) Tracking and Keplerian Element Data

This shows tracking and keplerian element data for the satellite.

Feedback or suggestion? Click here.




ElementValue
Catalog66242
NameSTARLINK-35480
Epoch Orbit907
Epoch Day354.22422531
Epoch Year2025
RAAN294.1694
Inclination53.1615
Eccentricity0.0001415
Argument of Perigee67.0118
Mean Anonmoly293.1036
Mean Motion15.39625286
Decay Rate0.00036944
L11 66242U 25245J 25354.22422531 .00036944 00000+0 92894-3 0 9998
L22 66242 53.1615 294.1694 0001415 67.0118 293.1036 15.39625286 9079



Live tracking and technical data element details for STARLINK-35480 (NORAD 66242). STARLINK-35480 can be tracked NOW for your location showing map with azimuth and elevation plus other details from your city location.







IsCatalogInMostPopularTable: catalog: 66242, numindb: 8
Update: records affected: 1



GetName: 66242 STARLINK-35480

Hit Count: updated at: Wed, 15 Apr 2026 01:00:18 GMT